Flag for U.S.A. Weather past 2 weeks in Lincoln, Nebraska, U.S.A.

Now
18 °F

Clear.


Feels Like: 10 °F
Forecast: 14 / 33 °F
Wind: 6 mph from Southwest

Location: Lincoln Municipal Airport

Current Time: Dec 28, 2014 at 5:40:49 AM

Latest Report: Dec 28, 2014 at 4:54 AM


Visibility: 10 mi

Pressure: 30.21 "Hg

Humidity: 77%

Dew point: 12 °F

Location of LincolnLocation

Historic Weather in Lincoln — Graph

°F

Lincoln temperature yesterday

Maximum temperature yesterday: 28 °F (at 2:54 PM)
Minimum temperature yesterday: 15 °F (at 8:54 PM)
Average temperature yesterday: 22 °F

Past Weeks' High & Low Weather Summary

 TemperatureHumidityPressure
High58 °F (Dec 14, 11:54 AM)97% (Dec 13, 6:54 PM)30.43 "Hg (Dec 13, 6:54 PM)
Low15 °F (Dec 27, 8:54 PM)46% (Dec 25, 2:54 PM)29.44 "Hg (Dec 22, 1:54 PM)
Average35 °F84%29.99 "Hg
* Reported Dec 13 3:54 AM — Dec 28 3:54 AM, Lincoln, Weather by CustomWeather, © 2014

Note: Actual official high and low records may vary slightly from our data, if they occured in-between our weather recording intervals... More about our weather records

Advertising

Lincoln weather history for previous 24 hours

 ConditionsComfort  
Time TempWeatherWind HumidityBarometerVisibility
3:54 AM
Dec 28
17 °FClear.6 mph80%30.22 "Hg10 mi
2:54 AM18 °FClear.5 mph80%30.23 "Hg10 mi
1:54 AM16 °FClear.3 mph84%30.24 "Hg10 mi
12:54 AM19 °FClear.6 mph77%30.25 "Hg10 mi
11:54 PM
Dec 27
17 °FClear.No wind80%30.27 "Hg10 mi
10:54 PM15 °FClear.5 mph83%30.29 "Hg10 mi
9:54 PM18 °FClear.3 mph80%30.31 "Hg10 mi
8:54 PM15 °FClear.6 mph87%30.31 "Hg10 mi
7:54 PM20 °FClear.No wind82%30.32 "Hg10 mi
6:54 PM20 °FClear.No wind85%30.32 "Hg10 mi
5:54 PM24 °FClear.No wind71%30.32 "Hg10 mi
4:54 PM26 °FSunny.7 mph66%30.31 "Hg10 mi
3:54 PM27 °FSunny.8 mph63%30.30 "Hg10 mi
2:54 PM28 °FSunny.9 mph66%30.29 "Hg10 mi
1:54 PM27 °FSunny.12 mph66%30.29 "Hg10 mi
12:54 PM26 °FSunny.10 mph66%30.31 "Hg10 mi
11:54 AM25 °FSunny.10 mph72%30.32 "Hg10 mi
10:54 AM23 °FSunny.10 mph74%30.34 "Hg10 mi
9:54 AM21 °FSunny.10 mph78%30.34 "Hg10 mi
8:54 AM19 °FSunny.9 mph77%30.31 "Hg10 mi
7:54 AM18 °FSunny.10 mph84%30.29 "Hg10 mi
6:54 AM20 °FClear.14 mph82%30.27 "Hg10 mi
5:54 AM20 °FClear.12 mph85%30.23 "Hg10 mi
Weather by CustomWeather, © 2014

See weather overviewHow to use our weather pages